Weather in Saint-Martin-de-Re

France     46°11′55″N   1°21′33″W
temp.,
°C
wind,
m/s
gust,
m/s
humid.,
%
clouds,
%
prec.,
mm/h
press.,
hPa
HPBL,
m
10 may, mon
mon1023:00+13w5788100 0.3 1002465
02:00+13sw81183100 0.4 1004719
05:00+13sw101282100 0.9 1005932
08:00+13wsw911810 1.3 1007972
11:00+14sw810770 0.1 10091088
14:00+14sw69765 0.3 1009980
17:00+14sw5774100 0.0 1008874
20:00+14wsw3472100 0.0 1008666
11 may, tue
tue1123:00+13w017621 0.0 100983
02:00+12wnw2377100 0.0 1008389
05:00+11w6788100 1.9 1009561
08:00+12wnw7976100 4.6 1009866
11:00+13w91165100 0.3 10121406
14:00+13w11126733 0.4 10141405
17:00+13w1113705 0.3 10151326
20:00+13w10117178 0.4 10151180
12 may, wed
wed1223:00+12wsw7873100 0.2 1016883
02:00+12wsw897090 1.1 10161010
05:00+12wsw676825 0.3 10151034
08:00+12sw557593 0.4 1014455
11:00+12s667568 0.4 1014679
14:00+14ssw6771100 0.5 1013751
17:00+14ssw687180 0.0 1012617
20:00+14s697771 0.0 1010482
13 may, thu
thu1323:00+11nw141689100 0.6 1012797
02:00+11wnw1113770 0.8 10141062
05:00+11wnw79734 0.0 1014974
08:00+12wnw57695 0.1 1013988
11:00+13w44647 0.1 10131036
14:00+13wsw546716 0.1 1012912
17:00+13w446650 0.0 1011757
20:00+13wnw5570100 0.0 1011718
14 may, fri
fri1423:00+12nw6777100 0.0 1011526
02:00+11nw468152 0.2 1012345
05:00+11nw34785 0.4 1012410
08:00+12nw237940 0.6 1012362
11:00+12nw447766 0.9 1013467
14:00+13w666960 1.1 1013681
17:00+14w776832 0.0 1013679
20:00+13wnw66695 0.0 1013694